Lander, WY

7:01 PM MDT on March 23, 2017 (GMT -0600)
Hunt

Weather History for KLND - May, 2013

Change the Weather History Date:

Tuesday, May 28, 2013

  Actual Average Record
Temperature  
Mean Temperature 58 °F 57 °F  
Max Temperature 67 °F 70 °F 90 °F (2003)
Min Temperature 48 °F 43 °F 27 °F (1947)
Degree Days  
Heating Degree Days 7 8  
Month to date heating degree days 272 344  
Since 1 July heating degree days 7332 7598  
Cooling Degree Days 0 0  
Month to date cooling degree days 9 0  
Year to date cooling degree days 9 0  
Growing Degree Days 6 (Base 50)    
Moisture  
Dew Point 40 °F    
Average Humidity 55    
Maximum Humidity 71    
Minimum Humidity 39    
Precipitation  
Precipitation 0.03 in 0.06 in 1.24 in (1956)
Month to date precipitation 1.86 2.01  
Year to date precipitation 7.40 6.03  
Snow  
Snow 0.00 in 0.10 in - ()
Month to date snowfall 10.5 4.8  
Since 1 July snowfall 111.1 91.3  
Snow Depth 0.00 in    
Sea Level Pressure  
Sea Level Pressure 29.63 in    
Wind  
Wind Speed 7 mph (WNW)    
Max Wind Speed 30 mph    
Max Gust Speed 38 mph    
Visibility 10 miles    
Events Rain , Thunderstorm    
T = Trace of Precipitation, MM = Missing Value Source: NWS Daily Summary

Daily Weather History Graph

Daily Weather History Graph

Search for Another Location

Airport or City:

Trip Planner

Search our weather history database for the weather conditions in past years. The results will help you decide how hot, cold, wet, or windy it might be!

Date:

Astronomy

May. 28, 2013 Rise Set
Actual Time 5:41 AM MDT 8:43 PM MDT
Civil Twilight 5:07 AM MDT 9:17 PM MDT
Nautical Twilight 4:23 AM MDT 10:01 PM MDT
Astronomical Twilight 3:32 AM MDT 10:52 PM MDT
Moon No Moon Rise 9:35 AM MDT (5/28)
Length of Visible Light 16h 10m
Length of Day
15h 02m
Waning Gibbous, 82% of the Moon is Illuminated
May 28
Waning Gibbous
May 31
Last Quarter
Jun 8
New
Jun 16
First Quarter
Jun 23
Full

Hourly Weather History & Observations

Time (MDT) Temp. Dew Point Humidity Pressure Visibility Wind Dir Wind Speed Gust Speed Precip Events Conditions
12:53 AM 53.1 °F 32.0 °F 45% 29.68 in 10.0 mi WSW 6.9 mph - N/A   Mostly Cloudy
1:53 AM 54.0 °F 30.9 °F 41% 29.64 in 10.0 mi Variable 4.6 mph - N/A   Mostly Cloudy
2:53 AM 55.9 °F 32.0 °F 40% 29.63 in 10.0 mi NW 18.4 mph - N/A   Scattered Clouds
3:53 AM 51.1 °F 34.0 °F 52% 29.64 in 10.0 mi West 4.6 mph - N/A   Overcast
4:53 AM 50.0 °F 33.1 °F 52% 29.64 in 10.0 mi Variable 3.5 mph - N/A   Scattered Clouds
5:53 AM 52.0 °F 34.0 °F 50% 29.62 in 10.0 mi SW 13.8 mph - N/A   Partly Cloudy
6:53 AM 52.0 °F 36.0 °F 54% 29.62 in 10.0 mi WNW 6.9 mph - N/A   Clear
7:53 AM 48.9 °F 37.0 °F 64% 29.64 in 10.0 mi NW 5.8 mph - N/A   Clear
8:53 AM 50.0 °F 37.0 °F 61% 29.65 in 10.0 mi NNW 4.6 mph - N/A   Mostly Cloudy
9:53 AM 53.1 °F 37.9 °F 57% 29.64 in 10.0 mi NNW 3.5 mph - N/A   Mostly Cloudy
10:53 AM 55.9 °F 39.0 °F 53% 29.62 in 10.0 mi NNE 4.6 mph - N/A   Overcast
11:53 AM 60.1 °F 39.0 °F 46% 29.58 in 10.0 mi NNE 4.6 mph - N/A   Clear
12:53 PM 63.0 °F 37.9 °F 40% 29.55 in 10.0 mi Calm Calm - N/A   Scattered Clouds
1:19 PM 64.4 °F 37.4 °F 37% 29.69 in 10.0 mi Variable 4.6 mph - N/A Thunderstorm Thunderstorm
1:43 PM 64.4 °F 39.2 °F 40% 29.69 in 10.0 mi NW 20.7 mph 26.5 mph N/A   Scattered Clouds
1:53 PM 62.1 °F 37.9 °F 41% 29.54 in 10.0 mi NW 10.4 mph - N/A   Mostly Cloudy
2:40 PM 51.8 °F 42.8 °F 71% 29.72 in 2.5 mi South 21.9 mph 35.7 mph 0.02 in Rain Light Rain
2:53 PM 53.1 °F 45.0 °F 74% 29.59 in 8.0 mi SSW 6.9 mph - 0.03 in Rain Light Rain
3:53 PM 53.1 °F 41.0 °F 64% 29.62 in 10.0 mi WSW 20.7 mph 31.1 mph 0.00 in Rain Light Rain
4:53 PM 57.9 °F 43.0 °F 58% 29.57 in 10.0 mi WNW 6.9 mph - 0.00 in   Mostly Cloudy
5:18 PM 55.4 °F 44.6 °F 67% 29.70 in 10.0 mi NW 13.8 mph 20.7 mph N/A   Mostly Cloudy
5:53 PM 57.0 °F 44.1 °F 62% 29.58 in 10.0 mi NW 6.9 mph - N/A   Partly Cloudy
6:53 PM 55.0 °F 45.0 °F 69% 29.59 in 10.0 mi SSW 5.8 mph - N/A Thunderstorm Thunderstorm
7:09 PM 53.6 °F 44.6 °F 72% 29.72 in 10.0 mi South 5.8 mph - N/A   Overcast
7:53 PM 54.0 °F 45.0 °F 72% 29.60 in 10.0 mi SE 4.6 mph - 0.00 in   Overcast
8:12 PM 53.6 °F 44.6 °F 72% 29.71 in 10.0 mi SE 3.5 mph - 0.00 in Rain , Thunderstorm Light Thunderstorms and Rain
8:32 PM 53.6 °F 44.6 °F 72% 29.71 in 10.0 mi Calm Calm - 0.00 in   Scattered Clouds
8:53 PM 52.0 °F 42.1 °F 69% 29.61 in 10.0 mi ESE 6.9 mph - 0.00 in   Mostly Cloudy
9:53 PM 51.1 °F 42.1 °F 71% 29.61 in 10.0 mi WNW 3.5 mph - N/A   Partly Cloudy
10:53 PM 51.1 °F 42.1 °F 71% 29.60 in 10.0 mi WNW 3.5 mph - N/A   Mostly Cloudy
11:53 PM 51.1 °F 42.1 °F 71% 29.57 in 10.0 mi West 5.8 mph - N/A   Overcast